Prescott, AZ

12:36 AM MST on November 20, 2019 (GMT -0700)
Love

Weather History for KPRC - May, 2019

Change the Weather History Date:

Wednesday, May 1, 2019

  Actual Average Record
Temperature  
Mean Temperature 56 °F 57 °F  
Max Temperature 70 °F 72 °F 86 °F (1996)
Min Temperature 42 °F 43 °F 22 °F (1967)
Degree Days  
Heating Degree Days 9    
Month to date heating degree days 9  
Since 1 July heating degree days 4058  
Cooling Degree Days 0    
Month to date cooling degree days 0  
Year to date cooling degree days 1  
Growing Degree Days 6 (Base 50)    
Moisture  
Dew Point 32 °F    
Average Humidity 42    
Maximum Humidity 70    
Minimum Humidity 21    
Precipitation  
Precipitation 0.00 in 0.01 in 0.73 in (1978)
Month to date precipitation 0.00 0.01  
Year to date precipitation 5.52 4.09  
Sea Level Pressure  
Sea Level Pressure 29.85 in    
Wind  
Wind Speed 8 mph (SSW)    
Max Wind Speed 20 mph    
Max Gust Speed 35 mph    
Visibility 10 miles    
Events      
T = Trace of Precipitation, MM = Missing Value Source: NWS Daily Summary

Daily Weather History Graph

Daily Weather History Graph

Search for Another Location

Airport or City:

Astronomy

May. 01, 2019 Rise Set
Actual Time 5:39 AM MST 7:14 PM MST
Civil Twilight 5:12 AM MST 7:41 PM MST
Nautical Twilight 4:40 AM MST 8:13 PM MST
Astronomical Twilight 4:06 AM MST 8:48 PM MST
Moon 4:14 AM MST (5/1) 4:17 PM MST (5/1)
Length of Visible Light 14h 28m
Length of Day
13h 34m
Waning Crescent, 10% of the Moon is Illuminated
May 1
Waning Crescent
May 4
New
May 11
First Quarter
May 18
Full
May 26
Last Quarter

Hourly Weather History & Observations

Time (MST) Temp. Windchill Dew Point Humidity Pressure Visibility Wind Dir Wind Speed Gust Speed Precip Events Conditions
12:53 AM 51.1 °F - 34.0 °F 52% 29.81 in 10.0 mi SW 8.1 mph - N/A   Clear
1:53 AM 50.0 °F - 34.0 °F 54% 29.81 in 10.0 mi Calm Calm - N/A   Clear
2:53 AM 48.0 °F - 33.1 °F 56% 29.81 in 10.0 mi NNE 3.5 mph - N/A   Clear
3:53 AM 45.0 °F 42.6 °F 34.0 °F 65% 29.83 in 10.0 mi South 4.6 mph - N/A   Clear
4:53 AM 46.0 °F 43.9 °F 34.0 °F 63% 29.82 in 10.0 mi South 4.6 mph - N/A   Clear
5:53 AM 45.0 °F - 35.1 °F 68% 29.84 in 10.0 mi Calm Calm - N/A   Clear
6:53 AM 50.0 °F - 36.0 °F 59% 29.86 in 10.0 mi East 4.6 mph - N/A   Clear
7:53 AM 55.0 °F - 39.0 °F 55% 29.86 in 10.0 mi South 5.8 mph - N/A   Clear
8:53 AM 57.0 °F - 37.0 °F 47% 29.87 in 10.0 mi Variable 4.6 mph - N/A   Partly Cloudy
9:53 AM 60.1 °F - 34.0 °F 38% 29.87 in 10.0 mi South 6.9 mph - N/A   Partly Cloudy
10:53 AM 63.0 °F - 33.1 °F 33% 29.86 in 10.0 mi SE 12.7 mph - N/A   Clear
11:53 AM 64.0 °F - 30.9 °F 29% 29.86 in 10.0 mi WSW 12.7 mph 19.6 mph N/A   Partly Cloudy
12:53 PM 68.0 °F - 35.1 °F 30% 29.83 in 10.0 mi South 10.4 mph 18.4 mph N/A   Scattered Clouds
1:53 PM 66.9 °F - 30.0 °F 25% 29.84 in 10.0 mi Variable 6.9 mph 20.7 mph N/A   Partly Cloudy
2:53 PM 68.0 °F - 30.9 °F 25% 29.83 in 10.0 mi SSW 15.0 mph 20.7 mph N/A   Partly Cloudy
3:53 PM 68.0 °F - 30.0 °F 24% 29.83 in 10.0 mi South 10.4 mph - N/A   Partly Cloudy
4:53 PM 68.0 °F - 26.1 °F 21% 29.83 in 10.0 mi WSW 16.1 mph - N/A   Partly Cloudy
5:53 PM 66.9 °F - 26.1 °F 21% 29.84 in 10.0 mi West 11.5 mph - N/A   Clear
6:53 PM 64.0 °F - 26.1 °F 24% 29.84 in 10.0 mi WSW 12.7 mph - N/A   Clear
7:53 PM 57.9 °F - 25.0 °F 28% 29.85 in 10.0 mi WSW 5.8 mph - N/A   Clear
8:53 PM 53.1 °F - 28.9 °F 40% 29.88 in 10.0 mi South 5.8 mph - N/A   Clear
9:53 PM 52.0 °F - 30.0 °F 43% 29.90 in 10.0 mi South 6.9 mph - N/A   Clear
10:53 PM 48.9 °F - 28.9 °F 46% 29.91 in 10.0 mi SSW 8.1 mph - N/A   Clear
11:53 PM 46.9 °F - 28.9 °F 50% 29.92 in 10.0 mi South 8.1 mph - N/A   Clear